IRIDIUM 55 [+]

Last updated on Wed May 30 2018 00:19:59 GMT+0000 (Coordinated Universal Time)

1 25272U 98019A 18149.46461615 -.00000037 00000-0 -18730-4 0 9996 2 25272 86.4206 142.3074 0002201 74.5071 285.6370 14.38605943 55617
UTC large
Height (km)
Speed (km/s)
/
Latitude / Longitude
Inclination (degrees)
Orbital Period (minutes)
Azimuth
Elevation
Range (km)
Doppler Factor

Next 0 passes for location: London (51.5072 / 0.1276)

Sorry there are no passes over London.
IRIDIUM 55 [+]